EHI
2 2 2 3 6 7 5 3 3 2 1 3 4 4 3 2 1 1 4 4 2 0 0 0 0 0 0 0 0 0 0 0 0 0 0 1 2 2
5 5 4 4 5 6 6 5 4 2 1 2 3 4 3 3 2 2 3 4 2 0 0 0 0 0 0 0 0 0 0 0 0 0 0 0 1 1
6 6 6 5 5 6 7 7 6 5 3 2 2 4 5 6 5 4 3 3 2 1 0 0 0 0 0 0 0 0 0 0 0 0 0 0 0 0
4 4 5 5 5 6 7 6 6 7 6 4 3 5 7 7 7 5 4 3 2 1 0 0 0 0 0 0 0 0 0 0 0 0 0 0 0 0
3 3 4 5 5 5 5 5 6 7 7 6 5 6 7 7 7 5 5 4 2 0 0 0 0 0 0 0 0 0 0 0 0 0 0 0 0 0
4 4 4 4 4 4 4 4 6 8 8 7 8 7 7 8 7 6 6 6 4 1 1 0 0 0 0 0 0 0 0 0 0 0 0 0 0 0
7 6 6 5 4 4 3 3 6 9 10 11 10 9 9 11 10 8 7 7 5 4 2 1 1 1 1 1 0 0 0 0 0 0 0 0 0 0
11 9 8 6 5 4 2 2 4 7 9 12 12 12 12 14 13 10 9 8 7 6 4 3 2 2 2 1 0 0 0 0 0 0 0 0 0 0
13 11 10 8 7 5 4 3 3 4 6 10 13 14 15 18 17 14 11 10 8 7 4 3 2 2 1 1 0 0 0 0 0 0 0 0 0 0
13 12 10 7 5 4 4 5 6 5 4 7 10 11 12 15 16 15 13 11 8 5 3 1 1 1 0 0 0 0 0 0 0 0 0 0 0 0
13 12 8 6 3 2 3 6 8 6 4 3 4 4 5 6 9 12 13 10 7 5 3 1 0 0 0 0 0 0 0 0 0 0 0 0 0 0
13 11 7 4 2 1 3 6 7 7 5 4 3 2 2 3 5 9 11 9 7 6 5 3 1 0 0 0 0 0 0 0 0 0 0 0 0 0
10 8 5 3 1 1 2 3 4 5 6 6 6 6 6 6 8 9 10 9 8 7 6 5 3 2 1 0 0 1 1 0 0 0 0 0 0 0
7 5 3 2 1 0 0 1 1 3 6 7 7 7 7 7 9 10 10 10 10 8 6 5 5 4 3 1 1 2 2 1 0 0 0 0 0 0
6 4 2 1 0 0 0 0 1 3 6 7 6 5 5 6 8 10 10 10 10 8 6 5 5 5 4 1 1 2 3 2 1 0 0 0 0 0
4 3 2 3 3 3 3 2 3 5 7 6 6 5 4 4 6 8 8 8 8 7 6 5 4 3 2 1 0 1 2 2 1 0 0 0 0 0
4 4 5 6 7 7 7 6 5 5 4 4 5 5 4 3 4 5 6 6 6 6 6 5 3 1 1 0 0 0 1 1 1 0 0 0 0 0
4 5 6 7 8 8 8 7 5 3 2 3 5 6 4 2 1 2 4 5 6 6 6 5 3 1 0 0 0 0 0 0 0 0 0 0 0 0
4 5 5 5 4 4 4 4 2 1 1 3 6 6 5 3 1 1 3 4 5 5 4 3 2 0 0 0 0 0 0 0 0 0 0 0 0 0
3 4 4 3 1 1 2 2 1 1 1 3 5 6 5 4 3 3 3 3 4 4 3 2 2 1 0 0 0 0 0 0 0 0 0 0 0 0
2 3 4 3 1 1 2 2 2 2 3 4 5 5 4 4 4 4 4 3 3 3 1 1 2 1 0 0 0 0 0 0 0 0 0 0 0 0
2 3 3 3 3 3 3 3 3 3 5 5 5 6 5 5 5 6 5 4 4 3 2 1 2 1 0 0 0 0 1 0 0 0 0 0 0 0
3 2 2 3 3 3 3 3 2 2 4 5 6 6 6 6 6 6 6 6 5 5 3 2 2 2 1 0 0 0 1 0 0 0 0 0 0 0
Wind_Speed
3 3 3 2 3 3 3 3 4 4 2 2 2 1 2 1 1 3 2 4 4 3 3 2 2 2 2 3 3 3 3 3 3 3 3 4 5 5
2 2 3 3 2 3 3 3 4 5 4 2 2 2 2 3 2 3 3 5 5 5 4 3 3 3 2 3 3 3 3 4 4 4 4 4 4 4
3 3 3 3 3 3 3 3 3 4 5 3 2 1 2 4 3 4 4 4 4 7 5 4 3 3 3 3 3 3 3 4 4 4 4 4 4 4
4 4 4 3 3 4 3 4 3 4 5 4 3 3 3 3 3 5 4 3 3 6 7 5 4 3 3 3 3 3 3 4 3 3 4 4 5 5
5 5 4 4 4 3 4 4 4 4 4 5 4 2 3 3 3 4 4 3 5 5 8 8 6 5 4 3 3 2 3 3 3 3 3 4 4 4
5 5 5 5 5 5 4 5 5 5 4 5 5 3 3 2 3 4 4 3 4 3 2 3 6 7 6 5 4 3 3 3 3 3 3 4 4 4
5 5 5 3 3 4 5 4 4 5 5 4 5 4 3 2 3 4 4 4 3 3 3 3 4 4 5 7 6 4 3 3 3 3 3 3 3 3
5 5 5 6 5 6 5 6 6 6 6 5 5 5 4 4 3 5 4 5 3 1 4 3 3 3 2 2 2 3 3 3 3 2 2 3 3 3
5 5 5 3 5 5 6 8 8 8 7 7 7 7 5 4 5 6 4 5 5 2 4 4 3 3 2 2 4 4 4 3 3 3 3 3 3 3
5 5 5 4 4 4 6 6 6 6 7 8 6 7 6 4 5 6 5 5 5 4 4 5 3 3 2 2 6 6 6 5 4 4 3 3 3 4
6 5 5 5 2 4 6 7 6 5 5 5 5 5 4 4 5 5 5 5 5 3 2 4 4 3 3 3 4 8 7 7 6 5 4 4 4 5
5 5 5 4 4 5 6 6 6 5 5 5 6 7 8 7 7 6 5 5 5 4 1 3 3 3 3 2 2 3 5 7 8 8 6 5 4 5
4 5 3 5 5 6 7 6 5 6 6 5 5 5 5 4 4 5 4 5 5 5 2 2 4 4 4 3 2 2 2 2 3 5 8 8 6 5
5 4 2 5 6 7 7 4 5 6 5 4 4 4 3 3 3 3 4 5 4 5 4 4 4 3 4 5 3 2 2 2 2 3 3 6 7 8
4 1 2 5 6 7 8 7 6 6 4 4 4 3 3 3 3 3 4 4 6 5 4 4 5 4 5 5 4 3 3 3 3 3 3 3 3 3
4 3 6 6 6 4 5 6 6 4 3 4 3 3 3 3 4 3 4 4 4 4 3 4 4 5 5 5 5 4 4 3 2 2 2 3 2 3
4 4 4 4 5 4 4 4 4 4 4 4 4 4 4 4 4 4 4 4 4 4 3 3 3 4 5 5 4 4 4 4 2 1 3 3 2 2
4 4 4 4 5 4 4 4 4 4 4 4 4 4 4 4 4 4 4 4 4 4 4 3 3 3 4 3 3 4 4 4 3 2 4 4 3 2
6 5 4 4 4 4 4 3 3 3 4 4 4 4 4 4 4 4 4 4 5 4 4 3 3 4 5 4 3 3 4 4 4 4 4 4 4 2
6 5 5 4 4 4 3 3 3 3 3 4 4 4 4 5 4 5 4 4 4 4 4 4 4 4 5 5 4 3 5 5 4 4 4 3 2 1
5 5 4 4 4 3 3 3 3 3 3 3 3 3 4 4 4 5 4 3 5 5 5 4 2 3 5 5 5 4 3 5 4 4 4 4 4 4
5 5 4 4 3 3 3 3 3 3 3 3 3 3 4 4 4 5 4 4 4 5 5 4 3 4 5 5 5 5 4 2 4 5 5 5 5 5
5 5 4 4 3 3 3 4 4 3 3 3 3 3 4 4 4 4 4 5 4 5 5 5 4 4 5 5 5 5 4 3 3 3 3 5 7 6
Wind_Direction
222 222 256 263 264 270 272 276 285 285 271 198 245 249 264 273 203 260 257 162 197 224 241 262 280 266 267 266 271 273 269 275 276 270 271 273 267 252
247 263 269 269 277 271 270 265 269 280 287 295 272 282 308 291 191 266 255 167 197 210 219 229 246 252 256 261 260 263 266 267 268 265 269 271 272 267
241 237 248 276 275 269 263 265 264 269 273 279 277 264 267 284 290 276 255 234 195 183 196 211 229 246 254 255 257 260 266 269 271 275 275 276 276 269
239 245 248 242 248 271 273 266 264 267 269 274 277 266 251 259 268 272 273 265 254 162 182 200 215 225 241 241 247 259 269 274 280 285 284 282 278 272
238 241 246 248 253 259 266 268 264 256 261 264 265 266 263 262 267 266 269 272 268 184 182 192 201 206 217 223 228 242 263 273 279 283 285 284 281 279
239 242 246 251 258 263 256 259 271 274 262 262 266 263 255 248 262 270 267 240 265 267 243 216 193 197 203 209 215 225 240 251 260 270 278 282 281 279
240 241 243 250 280 281 284 280 270 265 265 262 265 267 270 274 271 276 281 275 249 268 266 238 210 216 200 198 205 223 230 239 249 257 267 276 280 277
243 246 238 221 222 229 258 280 284 272 275 276 270 276 279 278 285 281 282 280 278 243 271 265 250 251 231 214 155 188 218 230 241 253 262 267 267 259
243 250 255 232 232 243 232 230 240 246 258 272 277 281 281 282 280 271 272 281 290 298 280 276 263 261 237 149 158 188 202 214 228 242 248 252 255 249
234 239 248 250 250 260 256 248 247 237 233 244 265 276 284 289 273 270 272 258 256 254 269 276 272 269 260 193 168 189 197 207 219 229 237 247 249 244
229 230 236 239 235 255 253 252 251 247 222 227 254 269 287 279 274 269 264 265 266 249 234 270 276 275 258 234 187 186 195 202 212 218 222 233 250 247
222 222 218 238 223 235 249 255 257 262 263 235 229 231 235 226 222 248 264 269 278 277 212 260 275 275 265 238 222 196 202 201 207 209 210 219 243 256
228 229 206 189 218 233 248 255 268 277 265 259 251 241 235 231 222 224 253 271 277 281 300 263 275 273 275 277 256 247 251 239 222 212 206 205 212 242
240 243 202 182 214 225 232 243 252 259 260 258 257 257 256 249 243 242 243 258 270 278 295 286 275 276 280 281 279 273 263 254 257 259 247 192 204 212
246 241 205 207 219 221 221 222 229 240 246 248 254 260 267 269 257 233 227 230 240 248 252 258 266 270 270 275 279 278 275 268 258 266 260 242 237 219
233 195 197 216 234 237 209 211 228 243 253 255 255 258 258 249 246 253 253 242 245 240 225 242 256 266 267 273 277 279 281 280 272 274 282 273 254 246
225 218 219 215 223 224 221 216 221 219 226 245 255 253 250 250 248 249 256 257 255 257 248 230 234 242 256 264 266 273 280 277 276 289 269 267 259 249
221 228 229 229 232 233 228 218 216 223 232 239 242 247 254 256 255 249 248 251 255 256 258 261 257 249 248 226 237 267 277 283 280 259 263 266 267 248
219 230 233 238 240 240 239 235 232 228 235 240 242 246 249 252 252 250 244 247 254 257 256 253 248 255 263 264 206 210 267 276 269 262 263 267 271 272
230 233 234 237 239 246 246 242 243 235 233 241 244 247 249 251 250 250 244 247 255 259 257 249 247 257 268 282 287 254 223 249 264 271 274 272 277 234
230 235 235 235 239 239 245 247 249 250 252 255 250 250 254 256 258 258 252 232 255 262 261 259 259 246 260 261 261 258 236 204 234 263 274 274 268 251
237 237 235 239 240 238 236 239 240 238 238 247 257 258 256 257 253 254 257 251 250 261 269 269 236 236 245 251 259 264 263 230 201 212 234 256 280 281
234 238 235 232 230 224 230 231 235 238 240 251 256 256 258 257 256 256 250 251 256 259 261 262 254 243 248 248 254 260 259 249 244 235 229 208 214 231